STARLINK-33942, 63974

Orbit data source: Space-Track

STARLINK-33942, 63974 is a payload satellite owned by SpaceX/Seattle (US) in LEO that was launched on Tue, 13 May 2025 UTC via an FALCON 9 launch vehicle from the Air Force Eastern Test Range (AFETR). Payload-class satellites include a variety of spacecraft equipped with specific instruments for various scientific and technological missions. These include communications satellites like Starlink; space stations such as the ISS; scientific satellites like the Hubble; Earth observation satellites from companies like Planet Labs, Umbra, and HawkEye 360; GPS; miniature CubeSats for education and research; and military/defense satellites.

Loading next visibility...
Identifier
63974, 2025-099Y
Orbit
LEO
Country
Flag of USUS
Related business
Manufacturer
SpaceX/Seattle
Mission
Operational Commercial Communications
Bus & Motor
STARLINK V2MO, Unknown motor
Mass
575 kg wet, ~530 kg dry
Launch date (UTC)
2025-05-13 (7 months ago)
Launch vehicle
FALCON 9
Launch site
Air Force Eastern Test Range (AFETR)
Object type
Payload
Rocket body
Debris
Shape & HBR
Box + 2 Pan, 17.7 m
Radar Cross Section
36.964 m², Large (>1 m²)

Expand to show TLE details & history
Last TLE update: 21 hours ago

TLE from 21 hours ago
0 STARLINK-33942
1 63974U 25099Y   25346.59086155  .00047480  00000-0  17247-2 0  9999
2 63974  43.0011 304.8125 0001427 275.0778  84.9911 15.27564164 34058
Epoch: 2025-12-12T14:10Z
TLE epoch observation values (Epoch: 2025-12-12T14:10:50.437Z)
Latitude
-0.00002°
Longitude
10.57203°
Altitude
482.787 km
Speed
7.626 km/s
True Right ascension
20h 19m 14s
True Declination
0° 00' 00"
Sunlit
Object was in daylight at epoch
Visualization orbit readout
Latitude
Unknown
Longitude
Unknown
Altitude
Unknown
Speed
Unknown
Apparent Right ascension
Unknown
Apparent Declination
Unknown
Sunlit
N/A
Visualization observer readout
Local Sidereal Time
09:36:01
Azimuth
Unknown
Elevation
Unknown
Doppler factor
Unknown
Orbital elements
Apogee altitude
486.021 km
Perigee altitude
484.062 km
Semi-major axis
6,863.178 km
Eccentricity
0.00014
Inclination
43.0011°
RAAN
304.8125°
Arg. of periapsis
275.0778°
True anomaly
85.00739°
Mean anomaly
84.9911°
Eccentric anomaly
84.99924°
Mean motion
3.81729 °/min
Orbital period
94.31 mins
BSTAR
0.0017247
Loading maneuver chart data...
Computing Atmospheric mass density...
Loading historical data...
Loading historical data...
Loading historical data...
Loading historical data...
Loading historical data...
Loading historical data...
Loading historical data...

Documentation

Showing up to 5 results
|